Flag for Canada Weather past 2 weeks in Yorkton, Saskatchewan, Canada

Now
84 °F

Sunny.


Feels Like: 83 °F
Forecast: N/A
Wind: 16 mph from West

Location: Yorkton

Current Time: Aug 29, 2015 at 3:57:43 PM

Latest Report: Aug 29, 2015 at 3:00 PM


Visibility: 9 mi

Pressure: 29.72 "Hg (28.07 "Hg at 505m altitude)

Humidity: 35%

Dew point: 54 °F

Location of YorktonLocation

Historic Weather in Yorkton — Graph

°F

Yorkton temperature yesterday

Maximum temperature yesterday: 81 °F (at 3:00 PM)
Minimum temperature yesterday: 55 °F (at 6:51 AM)
Average temperature yesterday: 67 °F

Past Weeks' High & Low Weather Summary

 TemperatureHumidityPressure
High86 °F (Aug 14, 2:00 PM)100% (Aug 17, 4:00 AM)30.22 "Hg (Aug 17, 4:00 AM)
Low41 °F (Aug 24, 5:00 AM)34% (Aug 28, 3:00 PM)29.64 "Hg (Aug 15, 4:49 PM)
Average61 °F75%29.93 "Hg
* Reported Aug 14 2:00 PM — Aug 29 2:00 PM, Yorkton, Weather by CustomWeather, © 2015

Note: Actual official high and low records may vary slightly from our data, if they occured in-between our weather recording intervals... More about our weather records

Advertising

Yorkton weather history for previous 24 hours

 ConditionsComfort  
Time TempWeatherWind HumidityBarometerVisibility
2:00 PM
Sat, Aug 29
82 °FSunny.13 mph37%29.73 "Hg5 mi
1:00 PM77 °FSunny.15 mph44%29.74 "Hg3 mi
12:00 PM73 °FSunny.12 mph53%29.76 "Hg3 mi
11:00 AM73 °FSunny.12 mph53%29.77 "Hg3 mi
10:00 AM68 °FPartly sunny.10 mph69%29.78 "Hg5 mi
9:00 AM64 °FPartly sunny.9 mph83%29.79 "Hg7 mi
8:00 AM63 °FOvercast.10 mph88%29.80 "Hg7 mi
7:00 AM61 °FPassing clouds.9 mph88%29.81 "Hg7 mi
6:00 AM59 °FSunny.9 mph94%29.81 "Hg7 mi
5:00 AM61 °FPassing clouds.9 mph88%29.80 "Hg7 mi
4:00 AM61 °FClear.8 mph88%29.83 "Hg8 mi
3:00 AM63 °FPassing clouds.8 mph88%29.84 "Hg9 mi
2:00 AM63 °FClear.9 mph83%29.84 "Hg9 mi
1:00 AM63 °FClear.9 mph83%29.85 "Hg9 mi
12:00 AM64 °FClear.9 mph83%29.85 "Hg9 mi
11:00 PM
Fri, Aug 28
64 °FClear.7 mph83%29.85 "Hg9 mi
10:00 PM66 °FClear.7 mph78%29.87 "Hg9 mi
9:00 PM66 °FClear.6 mph78%29.87 "Hg9 mi
8:00 PM68 °FClear.6 mph73%29.88 "Hg9 mi
7:00 PM72 °FSunny.6 mph69%29.86 "Hg9 mi
6:00 PM79 °FSunny.5 mph37%29.86 "Hg9 mi
5:00 PM81 °FSunny.3 mph34%29.85 "Hg9 mi
4:00 PM81 °FSunny.No wind34%29.84 "Hg9 mi
3:00 PM81 °FSunny.No wind34%29.85 "Hg9 mi
Weather by CustomWeather, © 2015

See weather overviewHow to use our weather pages